Погода в Степном

Россия / Приморский край     43°58′26″N   131°48′37″E
темп.,
°C
ветер,
м/с
пор.,
м/с
влажн.,
%
обл.,
%
осадки,
мм/ч
давл.,
гПа
погр.,
м
18 января, пн
пн1801:00−18ююв228468 0.0 101821
04:00−19ю228684 0.0 101621
07:00−20з1284100 0.0 101520
10:00−18з228555 0.0 101421
13:00−12з58672 0.0 10141392
16:00−13сз797519 0.1 10131133
19:00−18зсз8147799 0.1 1018606
22:00−24зсз5147198 0.2 1022569
19 января, вт
вт1901:00−26зсз497566 0.0 1026159
04:00−28зсз347733 0.0 102770
07:00−28зсз23770 0.0 103036
10:00−27зюз12820 0.0 103340
13:00−21юз12720 0.0 1034431
16:00−19вюв12710 0.0 1032300
19:00−25в12820 0.0 103420
22:00−27зсз01800 0.0 103420
20 января, ср
ср2001:00−27ююз11800 0.0 103420
04:00−27ю11802 0.0 103320
07:00−26ююз11780 0.0 103220
10:00−23юз11790 0.0 103221
13:00−16ю23730 0.0 1029202
16:00−13ююв23800 0.0 1026231
19:00−14ююв359018 0.0 1026101
22:00−15ююз239058 0.0 102542
21 января, чт
чт2101:00−16ююз128822 0.0 102425
04:00−15ююз118811 0.0 102420
07:00−14ю11890 0.0 102420
10:00−12ю12902 0.0 102521
13:00−6ююз118576 0.0 1023191
16:00−4юв118988 0.0 1020148
19:00−7вюв2291100 0.0 101921
22:00−8юв1292100 0.0 101821
22 января, пт
пт2201:00−9зюз1193100 0.0 101621
04:00−9с2392100 0.0 101726
07:00−12ссв5992100 0.2 1018243
10:00−14ссв359492 0.2 1023147
13:00−11св24834 0.0 1024440
16:00−11в239148 0.1 1024239
19:00−17св229377 0.0 102720
22:00−19ссз128939 0.0 103020